Regional Weather Roundup
Issued by NWS Spokane, WA

Home | Current Version | Previous Version | Text Only | Print | Product List | Glossary On
Versions: 1 2 3 4 5 6 7 8 9 10 11 12 13 14 15 16 17 18 19 20 21 22 23 24 25 26 27 28 29 30 31 32 33 34 35 36 37 38 39 40 41 42 43 44 45 46 47 48 49 50
467
NZUS01 KOTX 230810
RWROTX

Eastern Washington/Northern Idaho Roundup
National Weather Service, Spokane WA
1200 AM PST THU FEB 23 2017

Note: "fair" indicated few or no clouds below 12,000 feet with no
significant weather and/or obstructions to visibility.

...Northeast Washington and Northern Idaho Panhandle...

CITY           SKY/WX    TMP DP  RH WIND       PRES   REMARKS
Spokane Intl   PTCLDY    25  23  92 CALM      30.01S
Spokane Downto CLEAR     27  26  96 CALM      30.04S
Coeur d Alene  FOG       22  20  92 N3        30.03R VSB 1/4
Deer Park      FOG       22  20  92 CALM      30.03S VSB 1/4
Sandpoint      MOCLDY    28  28 100 CALM      30.03S

...Southeast Washington and southern Idaho Panhandle...

CITY           SKY/WX    TMP DP  RH WIND       PRES   REMARKS
Walla Walla    PTCLDY    35  29  78 S6        30.08R
Pullman/Moscow MOCLDY    30  27  88 W7        30.02S WCI  23
Lewiston       LGT RAIN  35  28  75 W10       30.05R WCI  27
Lowell           N/A     34  32  92 CALM      30.02F
Grangeville    CLOUDY    32  28  86 N6        29.95S WCI  26

...Columbia Basin...

CITY           SKY/WX    TMP DP  RH WIND       PRES   REMARKS
Ephrata        CLEAR     31  16  54 CALM      30.08R
Moses Lake     CLEAR     20  18  92 N3        30.09S
Pasco          PTCLDY    29  26  89 NW6       30.13R WCI  23
Richland       MOSUNNY   29  29  99 CALM      30.13S
Hermiston      PTCLDY    28  27  96 SW6       30.10S WCI  22
Pendleton      MOCLDY    32  29  88 W3        30.06S

...East Slopes Cascades...

CITY           SKY/WX    TMP DP  RH WIND       PRES   REMARKS
The Dalles     PTCLDY    38  31  76 VRB6G18   30.16R
Yakima         PTCLDY    26  20  77 W6        30.12R WCI  19
Ellensburg     CLEAR     30  21  69 NW10      30.08S WCI  21
Wenatchee      CLEAR     26  21  81 W8        30.11R WCI  18
Omak           CLEAR     24  15  68 NW7       30.12R WCI  16
Sunnyside      SUNNY     24  23  94 CALM      30.11S

...Southern British Columbia...

CITY           SKY/WX    TMP DP  RH WIND       PRES   REMARKS
Penticton      CLEAR     28  18  64 N9        30.15R WCI  20
Cranbrook      CLOUDY    25  14  63 W10       29.99S WCI  15
Osoyoos          N/A     27  21  80 E1          N/A

...Western Montana...

CITY           SKY/WX    TMP DP  RH WIND       PRES   REMARKS
Kalispell      SUNNY     20  17  88 NW3       29.94F
Libby            N/A     23  21  93 CALM      29.98S
Missoula       CLOUDY    30  26  85 SE3       29.93S

...Neighboring Cities...

CITY           SKY/WX    TMP DP  RH WIND       PRES   REMARKS
Seattle        CLOUDY    37  34  89 CALM      30.21S
Portland       CLOUDY    35  33  92 W3        30.24R
Boise          MOCLDY    32  27  81 NW17      29.82S WCI  21
Great Falls    CLOUDY    29  26  89 N7        29.93F WCI  22
Calgary        MOCLDY    21  19  93 NE6       30.02S FOG     WCI  14



USA.gov is the U.S. government's official web portal to all federal, state and local government web resources and services.